Regional Weather Roundup
Issued by NWS

Home | Current Version | Previous Version | Text Only | Print | Product List | Glossary On
Versions: 1 2 3 4 5 6 7 8 9 10 11 12 13 14 15 16 17 18 19 20 21 22 23 24 25 26 27 28
000
ASUS46 KSEW 241410
RWRWA

WASHINGTON REGIONAL WEATHER ROUNDUP
NATIONAL WEATHER SERVICE SEATTLE WA
700 AM PDT FRI MAR 24 2017

NOTE:"FAIR" INDICATES FEW OR NO CLOUDS BELOW 12,000 FEET WITH NO
SIGNIFICANT WEATHER AND/OR OBSTRUCTIONS TO VISIBILITY.

WAZ507-509-555>559-241500-
SEATTLE, TACOMA, EVERETT, AND VICINITY

CITY           SKY/WX    TMP DP  RH WIND       PRES   REMARKS
EVERETT        LGT RAIN  45  42  89 SE10G18   29.78S
BOEING FIELD   CLOUDY    47  46  97 SE9       29.78S
RENTON         LGT RAIN  47  44  90 VRB3      29.78S
SEATAC AIRPORT LGT RAIN  46  43  89 SE10      29.78R
JBLM-MCCHORD   LGT RAIN  46  46 100 SE10      29.77S
PUYALLUP       DRIZZLE   48  43  81 S10G16    29.78S
BREMERTON      CLOUDY    43  41  93 CALM      29.81S
JBLM-FT LEWIS  LGT RAIN  45  45 100 CALM      29.77S
TACOMA NARROWS LGT RAIN  44  44 100 W5        29.79R FOG
$$

WAZ001-503-506-510-514-515-241500-
NORTH INTERIOR

CITY           SKY/WX    TMP DP  RH WIND       PRES   REMARKS
BELLINGHAM     CLOUDY    45  43  93 N5        29.74S
FRIDAY HARBOR  CLOUDY    47  42  83 SE10G17   29.75R
EASTSOUND      CLEAR     48  41  76 S8        29.72S
PORT ANGELES   PTCLDY    43  40  89 SW8       29.73R
EDIZ HOOK      FAIR      42  39  89 W3        29.73R
PORT TOWNSEND  MOCLDY    45  43  93 E9        29.75F
NAS WHIDBEY    MOCLDY    48  41  76 SE18      29.78R
ARLINGTON      CLOUDY    46  37  71 CALM      29.80S
BURLINGTON     CLOUDY    45  41  87 E9        29.76S
$$

WAZ020-022-039-040-504-511-512-241500-
SOUTHWEST INTERIOR

CITY           SKY/WX    TMP DP  RH WIND       PRES   REMARKS
SHELTON        CLOUDY    43  41  93 CALM      29.75F
OLYMPIA        LGT RAIN  46  45  96 SW7       29.78R
CHEHALIS       LGT RAIN  48  48 100 CALM      29.78R
KELSO          CLOUDY    49  46  90 SE8       29.80S
VANCOUVER      LGT RAIN  47  47 100 SE6       29.83F
SCAPPOOSE, OR  CLOUDY    48  46  93 SE8       29.80F
PORTLAND, OR   LGT RAIN  47  47 100 E9        29.84F
$$

WAZ021-516-517-241500-
WASHINGTON COAST

CITY           SKY/WX    TMP DP  RH WIND       PRES   REMARKS
FORKS          MOCLDY    45  44  97 SE6       29.70F
HOQUIAM        MOCLDY    47  47 100 E6        29.75S
ASTORIA, OR    CLOUDY    48  44  86 S6        29.77R
$$

WAZ019-023-024-040-567>569-241500-
CASCADE MOUNTAINS AND COLUMBIA GORGE

CITY           SKY/WX    TMP DP  RH WIND       PRES   REMARKS
STAMPEDE PASS  NOT AVBL
TROUTDALE, OR  LGT RAIN  47  45  93 NW12      29.85S
THE DALLES, OR LGT RAIN  45  44  97 N5        29.86S
$$

WAZ026-027-041>044-520-521-241500-
EAST SLOPES

CITY           SKY/WX    TMP DP  RH WIND       PRES   REMARKS
OMAK           LGT RAIN  38  35  89 NW3       29.90F
WENATCHEE      LGT RAIN  38  37  97 NW5       29.87F
ELLENSBURG     LGT RAIN  41  38  89 CALM      29.85S FOG
YAKIMA         LGT RAIN  44  42  93 W3        29.87S
SUNNYSIDE ARPT RAIN      42  41  96 CALM      29.89R
$$

WAZ028-034-035-241500-
COLUMBIA BASIN

CITY           SKY/WX    TMP DP  RH WIND       PRES   REMARKS
EPHRATA        LGT RAIN  41  35  79 N9        29.86F
MOSES LAKE     LGT RAIN  41  38  89 NE5       29.87F
PASCO          LGT RAIN  44  41  89 E5        29.90S
HERMISTON, OR  LGT RAIN  44  44 100 NE3       29.88S
$$

WAZ036>038-241500-
NORTHEAST WASHINGTON

CITY           SKY/WX    TMP DP  RH WIND       PRES   REMARKS
SPOKANE GEIGER LGT RAIN  36  32  85 NE6       29.91S
SPOKANE FELTS  LGT RAIN  39  33  79 E3        29.93F
FAIRCHILD AFB  LGT RAIN  35  35 100 E8        29.89F
COEURDALENE,ID LGT RAIN  35  31  85 NE6       29.94F
DEER PARK      MIX PCPN  36  31  82 NE5       29.92F
$$

WAZ029>033-241500-
SOUTHEAST WASHINGTON

CITY           SKY/WX    TMP DP  RH WIND       PRES   REMARKS
PULLMAN        CLOUDY    41  33  73 E10       29.91F
LEWISTON, ID   CLOUDY    42  33  70 CALM      29.93S
WALLA WALLA    LGT RAIN  49  41  74 SE5       29.87F
PENDLETON, OR  LGT RAIN  45  43  93 S3        29.87S
$$




USA.gov is the U.S. government's official web portal to all federal, state and local government web resources and services.